Вернуться в каталог

STARLINK-5271

АктивенСвязьVLEO
NORAD 54194·PAYLOAD·🇺🇸 United States

Запущен Oct 28, 2022 с Vandenberg Space Force Base

Loading…

Ближайшие Пролёты (ближайшие 24 часа)

TLE

СвежийSource: CelesTrak SupGP

Эпоха: Sep 14, 2026, 21:46 UTC

1 54194C 22141AP  26257.90743056 -.00429100  00000+0 -12647-1 0  2574
2 54194  53.1594 215.5749 0001369 103.4666 279.9464 15.34681074    11

Отслеживайте STARLINK-5271 в реальном времени с AllMySat

Download on the App Store